Regional Weather Roundup
Issued by NWS

Home | Current Version | Previous Version | Graphics & Text | Print | Product List | Glossary On
Versions: 1 2 3 4 5 6 7 8 9 10 11 12 13 14 15 16 17 18 19 20 21 22 23 24 25 26 27 28 29 30 31 32 33 34 35 36 37 38 39 40 41 42 43 44 45 46 47 48 49 50
000
ASUS43 KFSD 181802
RWRSD

WEATHER ROUNDUP FOR SOUTH DAKOTA
NATIONAL WEATHER SERVICE SIOUX FALLS SD
100 PM CDT SAT APR 18 2015

NOTE: "FAIR" INDICATES FEW OR NO CLOUDS BELOW 12,000 FEET WITH NO
SIGNIFICANT WEATHER AND/OR OBSTRUCTIONS TO VISIBILITY.


SDZ001>005-009-010-012>017-181900-
NORTHWEST AND NORTH CENTRAL SOUTH DAKOTA

CITY           SKY/WX    TMP DP  RH WIND       PRES   REMARKS
BUFFALO          N/A     59  39  47 SE7       29.90F
FAITH            N/A     56  31  38 SE7       29.96F
MOBRIDGE       CLOUDY    63  26  24 S9        29.94F
$$

SDZ012>016-024>037-041>051-057-063-072>074-181900-
SOUTHWEST AND SOUTH CENTRAL SOUTH DAKOTA

CITY           SKY/WX    TMP DP  RH WIND       PRES   REMARKS
RAPID CTY ARPT LGT RAIN  48  44  86 N14       29.95F
PIERRE         LGT RAIN  57  35  43 E9        29.91F
CUSTER         LGT RAIN  41  36  82 NE14G25   29.95F
ELLSWORTH AFB  LGT RAIN  48  44  84 NE6       29.96F
PHILIP         CLOUDY    52  45  77 NE8       29.92F
PINE RIDGE     CLOUDY    48  44  86 E5        29.93F
WINNER         MOCLDY    57  50  77 E10       29.90F
$$

SDZ004>011-016>023-039-040-181900-
NORTHEAST SOUTH DAKOTA

CITY           SKY/WX    TMP DP  RH WIND       PRES   REMARKS
ABERDEEN       CLOUDY    71  24  17 E14       29.94F
WATERTOWN      MOSUNNY   71  26  18 SE14G24   29.95F
BROOKINGS      PTSUNNY   70  30  23 SE17G25   29.95S
SISSETON         N/A     69  28  21 S13G18    29.97F
$$

SDZ017-020-022-023-036>040-048>070-181900-
SOUTHEAST SOUTH DAKOTA

CITY           SKY/WX    TMP DP  RH WIND       PRES   REMARKS
SIOUX FALLS    CLOUDY    62  41  46 SE10      29.93S
HURON          CLOUDY    68  34  28 S13G18    29.91F
MITCHELL       LGT RAIN  56  46  69 S8        29.94F
YANKTON        CLOUDY    54  50  87 NE14      29.87F
$$

ABBREVIATIONS USED IN REMARKS
   TC - TEMPERATURE IN CELSIUS
  WCI - WIND CHILL INDEX
   HX - HEAT INDEX
  VSB - VISIBILITY



USA.gov is the U.S. government's official web portal to all federal, state and local government web resources and services.